Time,TemperatureF,DewpointF,PressureIn,WindDirection,WindDirectionDegrees,WindSpeedMPH,WindSpeedGustMPH,Humidity,HourlyPrecipIn,Conditions,Clouds,dailyrainin,SoftwareType,DateUTC
2013-08-28 00:00:00,77.2,70.9,29.90,WSW,242,5.8,5.8,81,0.00,CLR,,0.00,WeatherDisplay:10.37,2013-08-28 05:00:00,
2013-08-28 00:05:00,77.1,70.8,29.89,SW,227,10.4,10.4,81,0.00,CLR,,0.00,WeatherDisplay:10.37,2013-08-28 05:05:00,
2013-08-28 00:10:00,77.0,70.7,29.90,SW,234,9.2,9.2,81,0.00,CLR,,0.00,WeatherDisplay:10.37,2013-08-28 05:10:00,
2013-08-28 00:15:00,77.0,71.1,29.89,SW,236,11.0,11.0,82,0.00,CLR,,0.00,WeatherDisplay:10.37,2013-08-28 05:15:00,
2013-08-28 00:20:00,77.0,71.1,29.89,SSW,213,11.5,11.5,82,0.00,CLR,,0.00,WeatherDisplay:10.37,2013-08-28 05:20:00,
2013-08-28 00:25:00,76.9,71.0,29.89,SW,224,11.5,11.5,82,0.00,CLR,,0.00,WeatherDisplay:10.37,2013-08-28 05:25:00,
2013-08-28 00:30:00,76.9,71.0,29.89,SW,228,9.2,9.2,82,0.00,CLR,,0.00,WeatherDisplay:10.37,2013-08-28 05:30:00,
2013-08-28 00:35:00,76.8,70.9,29.89,SW,232,11.5,11.5,82,0.00,CLR,,0.00,WeatherDisplay:10.37,2013-08-28 05:35:00,
2013-08-28 00:40:00,76.7,70.8,29.89,SW,228,6.9,6.9,82,0.00,CLR,,0.00,WeatherDisplay:10.37,2013-08-28 05:40:00,
2013-08-28 00:45:00,76.7,71.1,29.89,SW,223,10.4,10.4,83,0.00,CLR,,0.00,WeatherDisplay:10.37,2013-08-28 05:45:00,
2013-08-28 00:50:00,76.6,71.0,29.89,WSW,238,10.4,10.4,83,0.00,CLR,,0.00,WeatherDisplay:10.37,2013-08-28 05:50:00,
2013-08-28 00:55:00,76.4,70.9,29.89,SW,236,8.1,8.1,83,0.00,CLR,,0.00,WeatherDisplay:10.37,2013-08-28 05:55:00,
2013-08-28 01:00:00,76.4,71.2,29.89,SW,231,10.4,10.4,84,0.00,CLR,,0.00,WeatherDisplay:10.37,2013-08-28 06:00:00,
2013-08-28 01:05:00,76.3,71.1,29.89,SW,215,10.4,10.4,84,0.00,CLR,,0.00,WeatherDisplay:10.37,2013-08-28 06:05:00,
2013-08-28 01:10:00,76.2,71.0,29.88,SW,231,6.9,6.9,84,0.00,CLR,,0.00,WeatherDisplay:10.37,2013-08-28 06:10:00,
2013-08-28 01:15:00,76.2,71.0,29.88,SW,230,2.0,8.0,84,0.00,CLR,,0.00,WeatherDisplay:10.37,2013-08-28 06:15:00,
2013-08-28 01:20:00,76.0,71.2,29.88,SW,227,6.9,6.9,85,0.00,CLR,,0.00,WeatherDisplay:10.37,2013-08-28 06:20:00,
2013-08-28 01:25:00,76.0,71.2,29.88,SW,224,11.5,11.5,85,0.00,CLR,,0.00,WeatherDisplay:10.37,2013-08-28 06:25:00,
2013-08-28 01:30:00,75.8,71.0,29.88,WSW,239,10.4,10.4,85,0.00,CLR,,0.00,WeatherDisplay:10.37,2013-08-28 06:30:00,
2013-08-28 01:35:00,75.8,71.3,29.88,West,259,11.5,11.5,86,0.00,CLR,,0.00,WeatherDisplay:10.37,2013-08-28 06:35:00,
2013-08-28 01:40:00,75.7,71.2,29.88,WSW,237,9.2,9.2,86,0.00,CLR,,0.00,WeatherDisplay:10.37,2013-08-28 06:40:00,
2013-08-28 01:45:00,75.6,71.5,29.88,SW,234,9.2,9.2,87,0.00,CLR,,0.00,WeatherDisplay:10.37,2013-08-28 06:45:00,
2013-08-28 01:50:00,75.5,71.4,29.88,SW,234,11.5,11.5,87,0.00,CLR,,0.00,WeatherDisplay:10.37,2013-08-28 06:50:00,
2013-08-28 01:55:00,75.4,71.3,29.88,WSW,243,11.5,11.5,87,0.00,CLR,,0.00,WeatherDisplay:10.37,2013-08-28 06:55:00,
2013-08-28 02:00:00,75.3,71.2,29.88,SW,232,11.5,11.5,87,0.00,CLR,,0.00,WeatherDisplay:10.37,2013-08-28 07:00:00,
2013-08-28 02:05:00,75.3,71.2,29.88,SW,228,6.9,6.9,87,0.00,CLR,,0.00,WeatherDisplay:10.37,2013-08-28 07:05:00,
2013-08-28 02:10:00,75.3,71.5,29.88,SW,228,11.5,11.5,88,0.00,CLR,,0.00,WeatherDisplay:10.37,2013-08-28 07:10:00,
2013-08-28 02:15:00,75.3,71.5,29.88,SW,221,12.7,12.7,88,0.00,CLR,,0.00,WeatherDisplay:10.37,2013-08-28 07:15:00,
2013-08-28 02:20:00,75.3,71.5,29.88,SW,236,11.5,11.5,88,0.00,CLR,,0.00,WeatherDisplay:10.37,2013-08-28 07:20:00,
2013-08-28 02:25:00,75.3,71.5,29.88,SW,216,11.5,11.5,88,0.00,CLR,,0.00,WeatherDisplay:10.37,2013-08-28 07:25:00,
2013-08-28 02:30:00,75.3,71.5,29.88,SW,216,11.0,11.0,88,0.00,CLR,,0.00,WeatherDisplay:10.37,2013-08-28 07:30:00,
2013-08-28 02:35:00,75.3,71.5,29.88,SW,229,5.8,6.3,88,0.00,CLR,,0.00,WeatherDisplay:10.37,2013-08-28 07:35:00,
2013-08-28 02:40:00,75.3,71.5,29.88,WSW,252,11.5,11.5,88,0.00,CLR,,0.00,WeatherDisplay:10.37,2013-08-28 07:40:00,
2013-08-28 02:45:00,75.3,71.2,29.88,WSW,246,9.2,9.2,87,0.00,CLR,,0.00,WeatherDisplay:10.37,2013-08-28 07:45:00,
2013-08-28 02:50:00,75.3,71.2,29.88,WSW,240,4.6,4.6,87,0.00,CLR,,0.00,WeatherDisplay:10.37,2013-08-28 07:50:00,
2013-08-28 02:55:00,75.3,71.2,29.88,SW,234,11.5,11.5,87,0.00,CLR,,0.00,WeatherDisplay:10.37,2013-08-28 07:55:00,
2013-08-28 03:00:00,75.3,71.2,29.88,SW,221,10.0,10.0,87,0.00,CLR,,0.00,WeatherDisplay:10.37,2013-08-28 08:00:00,
2013-08-28 03:05:00,75.3,71.2,29.88,SW,228,11.5,11.5,87,0.00,CLR,,0.00,WeatherDisplay:10.37,2013-08-28 08:05:00,
2013-08-28 03:10:00,75.1,71.0,29.89,SW,219,10.4,10.4,87,0.00,CLR,,0.00,WeatherDisplay:10.37,2013-08-28 08:10:00,
2013-08-28 03:15:00,75.1,71.0,29.89,SW,230,9.2,9.2,87,0.00,CLR,,0.00,WeatherDisplay:10.37,2013-08-28 08:15:00,
2013-08-28 03:20:00,75.0,70.9,29.89,SW,228,11.5,11.5,87,0.00,CLR,,0.00,WeatherDisplay:10.37,2013-08-28 08:20:00,
2013-08-28 03:25:00,74.9,70.8,29.89,WSW,241,9.2,9.2,87,0.00,CLR,,0.00,WeatherDisplay:10.37,2013-08-28 08:25:00,
2013-08-28 03:30:00,74.8,71.0,29.89,SW,228,4.6,4.6,88,0.00,CLR,,0.00,WeatherDisplay:10.37,2013-08-28 08:30:00,
2013-08-28 03:35:00,74.7,70.9,29.89,SW,233,5.8,5.8,88,0.00,CLR,,0.00,WeatherDisplay:10.37,2013-08-28 08:35:00,
2013-08-28 03:40:00,74.7,70.6,29.90,SW,219,10.4,10.4,87,0.00,CLR,,0.00,WeatherDisplay:10.37,2013-08-28 08:40:00,
2013-08-28 03:45:00,74.6,70.5,29.90,SW,229,7.0,7.0,87,0.00,CLR,,0.00,WeatherDisplay:10.37,2013-08-28 08:45:00,
2013-08-28 03:50:00,74.6,70.5,29.90,SW,225,4.0,4.2,87,0.00,CLR,,0.00,WeatherDisplay:10.37,2013-08-28 08:50:00,
2013-08-28 03:55:00,74.5,70.4,29.90,WSW,240,10.4,10.4,87,0.00,CLR,,0.00,WeatherDisplay:10.37,2013-08-28 08:55:00,
2013-08-28 04:00:00,74.5,70.4,29.90,WSW,237,5.8,5.8,87,0.00,CLR,,0.00,WeatherDisplay:10.37,2013-08-28 09:00:00,
2013-08-28 04:05:00,74.4,70.3,29.90,SW,227,10.4,10.4,87,0.00,CLR,,0.00,WeatherDisplay:10.37,2013-08-28 09:05:00,
2013-08-28 04:10:00,74.3,70.2,29.90,SW,232,6.9,6.9,87,0.00,CLR,,0.00,WeatherDisplay:10.37,2013-08-28 09:10:00,
2013-08-28 04:15:00,74.2,70.1,29.90,SW,230,6.9,6.9,87,0.00,CLR,,0.00,WeatherDisplay:10.37,2013-08-28 09:15:00,
2013-08-28 04:20:00,74.2,70.1,29.90,WSW,237,9.2,9.2,87,0.00,CLR,,0.00,WeatherDisplay:10.37,2013-08-28 09:20:00,
2013-08-28 04:26:00,74.1,70.0,29.90,SW,232,8.1,8.1,87,0.00,CLR,,0.00,WeatherDisplay:10.37,2013-08-28 09:26:00,
2013-08-28 04:30:00,74.0,69.9,29.90,SW,227,8.1,8.1,87,0.00,CLR,,0.00,WeatherDisplay:10.37,2013-08-28 09:30:00,
2013-08-28 04:33:00,74.0,69.9,29.90,SW,235,9.2,9.2,87,0.00,CLR,,0.00,WeatherDisplay:10.37,2013-08-28 09:33:00,
2013-08-28 04:38:00,73.9,69.4,29.90,SW,234,9.2,9.2,86,0.00,CLR,,0.00,WeatherDisplay:10.37,2013-08-28 09:38:00,
2013-08-28 04:43:00,73.8,69.7,29.90,SW,232,9.2,9.2,87,0.00,CLR,,0.00,WeatherDisplay:10.37,2013-08-28 09:43:00,
2013-08-28 04:48:00,73.7,69.2,29.90,SW,230,5.8,5.8,86,0.00,CLR,,0.00,WeatherDisplay:10.37,2013-08-28 09:48:00,
2013-08-28 04:54:00,73.7,69.2,29.90,WSW,238,6.9,6.9,86,0.00,CLR,,0.00,WeatherDisplay:10.37,2013-08-28 09:54:00,
2013-08-28 04:59:00,73.7,69.2,29.90,WSW,246,6.9,6.9,86,0.00,CLR,,0.00,WeatherDisplay:10.37,2013-08-28 09:59:00,
2013-08-28 05:04:00,73.7,69.2,29.90,WSW,242,6.9,6.9,86,0.00,CLR,,0.00,WeatherDisplay:10.37,2013-08-28 10:04:00,
2013-08-28 05:09:00,73.7,69.2,29.91,WSW,242,3.5,3.5,86,0.00,CLR,,0.00,WeatherDisplay:10.37,2013-08-28 10:09:00,
2013-08-28 05:14:00,73.7,68.9,29.91,WSW,242,5.8,5.8,85,0.00,CLR,,0.00,WeatherDisplay:10.37,2013-08-28 10:14:00,
2013-08-28 05:19:00,73.7,68.9,29.91,WSW,242,3.5,3.5,85,0.00,CLR,,0.00,WeatherDisplay:10.37,2013-08-28 10:19:00,
2013-08-28 05:24:00,73.8,69.0,29.91,WSW,240,5.8,5.8,85,0.00,CLR,,0.00,WeatherDisplay:10.37,2013-08-28 10:24:00,
2013-08-28 05:29:00,73.8,68.7,29.91,SW,236,4.6,4.6,84,0.00,CLR,,0.00,WeatherDisplay:10.37,2013-08-28 10:29:00,
2013-08-28 05:34:00,73.8,68.7,29.91,WSW,238,5.8,5.8,84,0.00,CLR,,0.00,WeatherDisplay:10.37,2013-08-28 10:34:00,
2013-08-28 05:39:00,73.7,68.6,29.91,WSW,240,4.6,4.6,84,0.00,CLR,,0.00,WeatherDisplay:10.37,2013-08-28 10:39:00,
2013-08-28 05:44:00,73.5,68.7,29.90,WSW,242,3.5,3.5,85,0.00,CLR,,0.00,WeatherDisplay:10.37,2013-08-28 10:44:00,
2013-08-28 05:49:00,73.3,68.5,29.90,SW,233,9.2,9.2,85,0.00,CLR,,0.00,WeatherDisplay:10.37,2013-08-28 10:49:00,
2013-08-28 05:54:00,73.1,68.3,29.90,SW,236,4.6,4.6,85,0.00,CLR,,0.00,WeatherDisplay:10.37,2013-08-28 10:54:00,
2013-08-28 05:59:00,73.0,68.2,29.90,WSW,237,5.8,5.8,85,0.00,CLR,,0.00,WeatherDisplay:10.37,2013-08-28 10:59:00,
2013-08-28 06:04:00,73.0,68.2,29.91,SW,229,9.2,9.2,85,0.00,CLR,,0.00,WeatherDisplay:10.37,2013-08-28 11:04:00,
2013-08-28 06:09:00,72.9,68.1,29.91,WSW,242,8.1,8.1,85,0.00,CLR,,0.00,WeatherDisplay:10.37,2013-08-28 11:09:00,
2013-08-28 06:14:00,72.9,68.1,29.91,WSW,244,9.2,9.2,85,0.00,CLR,,0.00,WeatherDisplay:10.37,2013-08-28 11:14:00,
2013-08-28 06:19:00,72.9,68.1,29.91,WSW,237,8.1,8.1,85,0.00,CLR,,0.00,WeatherDisplay:10.37,2013-08-28 11:19:00,
2013-08-28 06:24:00,72.9,68.1,29.91,SW,221,11.5,11.5,85,0.00,CLR,,0.00,WeatherDisplay:10.37,2013-08-28 11:24:00,
2013-08-28 06:29:00,72.8,68.0,29.91,SW,236,10.4,10.4,85,0.00,CLR,,0.00,WeatherDisplay:10.37,2013-08-28 11:29:00,
2013-08-28 06:34:00,72.7,67.9,29.91,SW,221,11.5,11.5,85,0.00,CLR,,0.00,WeatherDisplay:10.37,2013-08-28 11:34:00,
2013-08-28 06:39:00,72.8,68.0,29.91,SW,234,12.7,12.7,85,0.00,CLR,,0.00,WeatherDisplay:10.37,2013-08-28 11:39:00,
2013-08-28 06:44:00,72.8,68.0,29.91,WSW,246,11.5,11.5,85,0.00,CLR,,0.00,WeatherDisplay:10.37,2013-08-28 11:44:00,
2013-08-28 06:49:00,72.9,68.1,29.91,WSW,239,9.2,9.2,85,0.00,CLR,,0.00,WeatherDisplay:10.37,2013-08-28 11:49:00,
2013-08-28 06:54:00,73.0,67.9,29.91,WSW,240,11.5,11.5,84,0.00,CLR,,0.00,WeatherDisplay:10.37,2013-08-28 11:54:00,
2013-08-28 06:59:00,73.1,68.0,29.91,SW,234,10.4,10.4,84,0.00,CLR,,0.00,WeatherDisplay:10.37,2013-08-28 11:59:00,
2013-08-28 07:04:00,73.2,68.1,29.91,WSW,249,11.5,11.5,84,0.00,CLR,,0.00,WeatherDisplay:10.37,2013-08-28 12:04:00,
2013-08-28 07:09:00,73.3,68.2,29.91,SW,232,11.5,11.5,84,0.00,CLR,,0.00,WeatherDisplay:10.37,2013-08-28 12:09:00,
2013-08-28 07:14:00,73.5,68.0,29.91,SW,228,12.7,12.7,83,0.00,CLR,,0.00,WeatherDisplay:10.37,2013-08-28 12:14:00,
2013-08-28 07:19:00,73.6,68.1,29.91,SW,222,10.4,10.4,83,0.00,CLR,,0.00,WeatherDisplay:10.37,2013-08-28 12:19:00,
2013-08-28 07:24:00,73.7,68.2,29.91,SW,232,11.0,11.0,83,0.00,CLR,,0.00,WeatherDisplay:10.37,2013-08-28 12:24:00,
2013-08-28 07:29:00,73.9,68.4,29.91,WSW,242,12.7,12.7,83,0.00,CLR,,0.00,WeatherDisplay:10.37,2013-08-28 12:29:00,
2013-08-28 07:34:00,74.2,68.3,29.91,SW,226,9.2,9.2,82,0.00,CLR,,0.00,WeatherDisplay:10.37,2013-08-28 12:34:00,
2013-08-28 07:39:00,74.4,68.2,29.91,WSW,242,15.0,15.0,81,0.00,CLR,,0.00,WeatherDisplay:10.37,2013-08-28 12:39:00,
2013-08-28 07:44:00,74.5,68.6,29.91,WSW,246,9.2,9.2,82,0.00,CLR,,0.00,WeatherDisplay:10.37,2013-08-28 12:44:00,
2013-08-28 07:49:00,74.7,68.5,29.91,SW,236,9.0,9.0,81,0.00,CLR,,0.00,WeatherDisplay:10.37,2013-08-28 12:49:00,
2013-08-28 07:54:00,74.9,68.7,29.91,SW,229,12.7,12.7,81,0.00,CLR,,0.00,WeatherDisplay:10.37,2013-08-28 12:54:00,
2013-08-28 07:59:00,75.1,68.5,29.91,SSW,211,10.4,10.4,80,0.00,CLR,,0.00,WeatherDisplay:10.37,2013-08-28 12:59:00,
2013-08-28 08:04:00,75.3,68.7,29.91,SW,232,11.5,11.5,80,0.00,CLR,,0.00,WeatherDisplay:10.37,2013-08-28 13:04:00,
2013-08-28 08:09:00,75.7,68.7,29.91,West,274,11.5,11.5,79,0.00,CLR,,0.00,WeatherDisplay:10.37,2013-08-28 13:09:00,
2013-08-28 08:14:00,76.1,68.7,29.91,SW,218,13.0,13.0,78,0.00,CLR,,0.00,WeatherDisplay:10.37,2013-08-28 13:14:00,
2013-08-28 08:19:00,76.5,69.1,29.91,SW,227,6.9,6.9,78,0.00,CLR,,0.00,WeatherDisplay:10.37,2013-08-28 13:19:00,
2013-08-28 08:24:00,77.1,68.9,29.91,SW,216,11.5,11.5,76,0.00,CLR,,0.00,WeatherDisplay:10.37,2013-08-28 13:24:00,
2013-08-28 08:29:00,77.3,69.1,29.91,SW,229,9.2,9.2,76,0.00,CLR,,0.00,WeatherDisplay:10.37,2013-08-28 13:29:00,
2013-08-28 08:34:00,77.4,68.9,29.91,SW,227,13.0,13.0,75,0.00,CLR,,0.00,WeatherDisplay:10.37,2013-08-28 13:34:00,
2013-08-28 08:39:00,77.6,69.0,29.90,WSW,246,12.7,12.7,75,0.00,CLR,,0.00,WeatherDisplay:10.37,2013-08-28 13:39:00,
2013-08-28 08:45:00,78.0,69.0,29.91,WSW,246,13.8,13.8,74,0.00,CLR,,0.00,WeatherDisplay:10.37,2013-08-28 13:45:00,
2013-08-28 08:50:00,78.4,69.0,29.91,West,277,12.7,12.7,73,0.00,CLR,,0.00,WeatherDisplay:10.37,2013-08-28 13:50:00,
2013-08-28 08:55:00,78.8,69.0,29.91,NW,304,15.0,15.0,72,0.00,CLR,,0.00,WeatherDisplay:10.37,2013-08-28 13:55:00,
2013-08-28 09:00:00,79.1,69.3,29.91,NW,319,11.5,11.5,72,0.00,CLR,,0.00,WeatherDisplay:10.37,2013-08-28 14:00:00,
2013-08-28 09:05:00,79.4,69.6,29.91,WNW,298,11.5,11.5,72,0.00,CLR,,0.00,WeatherDisplay:10.37,2013-08-28 14:05:00,
2013-08-28 09:10:00,79.8,69.6,29.91,West,274,10.0,10.0,71,0.00,CLR,,0.00,WeatherDisplay:10.37,2013-08-28 14:10:00,
2013-08-28 09:15:00,80.1,69.8,29.91,WNW,288,17.0,17.0,71,0.00,CLR,,0.00,WeatherDisplay:10.37,2013-08-28 14:15:00,
2013-08-28 09:20:00,80.4,69.7,29.91,WNW,291,15.0,15.0,70,0.00,CLR,,0.00,WeatherDisplay:10.37,2013-08-28 14:20:00,
2013-08-28 09:25:00,80.7,70.0,29.90,WNW,283,11.5,11.5,70,0.00,CLR,,0.00,WeatherDisplay:10.37,2013-08-28 14:25:00,
2013-08-28 09:30:00,81.0,70.3,29.90,West,267,12.7,12.7,70,0.00,CLR,,0.00,WeatherDisplay:10.37,2013-08-28 14:30:00,
2013-08-28 09:35:00,81.1,70.0,29.91,WNW,287,15.0,15.0,69,0.00,CLR,,0.00,WeatherDisplay:10.37,2013-08-28 14:35:00,
2013-08-28 09:40:00,81.1,70.4,29.91,WSW,247,17.3,17.3,70,0.00,CLR,,0.00,WeatherDisplay:10.37,2013-08-28 14:40:00,
2013-08-28 09:45:00,81.6,70.4,29.91,NW,319,15.0,15.0,69,0.00,CLR,,0.00,WeatherDisplay:10.37,2013-08-28 14:45:00,
2013-08-28 09:50:00,81.9,70.3,29.91,NNE,28,15.0,15.0,68,0.00,CLR,,0.00,WeatherDisplay:10.37,2013-08-28 14:50:00,
2013-08-28 09:55:00,81.9,69.9,29.90,WNW,286,23.0,23.0,67,0.00,CLR,,0.00,WeatherDisplay:10.37,2013-08-28 14:55:00,
2013-08-28 10:00:00,81.8,70.2,29.91,West,279,18.4,18.4,68,0.00,CLR,,0.00,WeatherDisplay:10.37,2013-08-28 15:00:00,
2013-08-28 10:05:00,82.0,70.4,29.90,West,281,16.0,16.0,68,0.00,CLR,,0.00,WeatherDisplay:10.37,2013-08-28 15:05:00,
2013-08-28 10:10:00,82.0,70.4,29.91,WNW,294,19.6,19.6,68,0.00,CLR,,0.00,WeatherDisplay:10.37,2013-08-28 15:10:00,
2013-08-28 10:15:00,82.2,70.6,29.90,WNW,289,6.9,6.9,68,0.00,CLR,,0.00,WeatherDisplay:10.37,2013-08-28 15:15:00,
2013-08-28 10:20:00,82.4,70.8,29.90,West,278,12.0,17.0,68,0.00,CLR,,0.00,WeatherDisplay:10.37,2013-08-28 15:20:00,
2013-08-28 10:25:00,82.8,71.2,29.90,WNW,286,17.3,17.3,68,0.00,CLR,,0.00,WeatherDisplay:10.37,2013-08-28 15:25:00,
2013-08-28 10:30:00,82.8,71.2,29.90,West,274,19.6,19.6,68,0.00,CLR,,0.00,WeatherDisplay:10.37,2013-08-28 15:30:00,
2013-08-28 10:35:00,82.9,71.3,29.90,WNW,284,16.0,16.0,68,0.00,CLR,,0.00,WeatherDisplay:10.37,2013-08-28 15:35:00,
2013-08-28 10:40:00,83.4,71.7,29.90,NW,311,11.5,11.5,68,0.00,CLR,,0.00,WeatherDisplay:10.37,2013-08-28 15:40:00,
2013-08-28 10:45:00,84.1,72.0,29.90,NW,310,12.7,12.7,67,0.00,CLR,,0.00,WeatherDisplay:10.37,2013-08-28 15:45:00,
2013-08-28 10:50:00,84.3,71.7,29.90,West,281,18.4,18.4,66,0.00,CLR,,0.00,WeatherDisplay:10.37,2013-08-28 15:50:00,
2013-08-28 10:55:00,84.2,71.6,29.90,West,279,15.0,15.0,66,0.00,CLR,,0.00,WeatherDisplay:10.37,2013-08-28 15:55:00,
2013-08-28 11:00:00,84.3,71.7,29.90,West,278,13.0,13.0,66,0.00,CLR,,0.00,WeatherDisplay:10.37,2013-08-28 16:00:00,
2013-08-28 11:05:00,84.4,71.8,29.90,West,281,16.1,16.1,66,0.00,CLR,,0.00,WeatherDisplay:10.37,2013-08-28 16:05:00,
2013-08-28 11:10:00,84.8,71.7,29.90,WNW,297,14.0,14.0,65,0.00,CLR,,0.00,WeatherDisplay:10.37,2013-08-28 16:10:00,
2013-08-28 11:15:00,84.9,71.8,29.90,NW,317,11.5,11.5,65,0.00,CLR,,0.00,WeatherDisplay:10.37,2013-08-28 16:15:00,
2013-08-28 11:20:00,85.1,72.0,29.90,WNW,298,13.8,13.8,65,0.00,CLR,,0.00,WeatherDisplay:10.37,2013-08-28 16:20:00,
2013-08-28 11:25:00,85.5,72.4,29.90,WSW,244,11.0,11.0,65,0.00,CLR,,0.00,WeatherDisplay:10.37,2013-08-28 16:25:00,
2013-08-28 11:30:00,86.1,72.5,29.90,SW,220,6.9,6.9,64,0.00,CLR,,0.00,WeatherDisplay:10.37,2013-08-28 16:30:00,
2013-08-28 11:35:00,86.2,72.6,29.90,NW,309,11.5,11.5,64,0.00,CLR,,0.00,WeatherDisplay:10.37,2013-08-28 16:35:00,
2013-08-28 11:40:00,86.2,72.6,29.90,West,281,11.5,11.5,64,0.00,CLR,,0.00,WeatherDisplay:10.37,2013-08-28 16:40:00,
2013-08-28 11:45:00,86.7,72.6,29.91,WNW,297,16.1,16.1,63,0.00,CLR,,0.00,WeatherDisplay:10.37,2013-08-28 16:45:00,
2013-08-28 11:50:00,86.5,72.9,29.91,SW,217,11.5,11.5,64,0.00,CLR,,0.00,WeatherDisplay:10.37,2013-08-28 16:50:00,
2013-08-28 11:55:00,86.9,72.8,29.90,West,269,11.5,11.5,63,0.00,CLR,,0.00,WeatherDisplay:10.37,2013-08-28 16:55:00,
2013-08-28 12:00:00,87.5,73.3,29.90,South,173,5.8,5.8,63,0.00,CLR,,0.00,WeatherDisplay:10.37,2013-08-28 17:00:00,
2013-08-28 12:05:00,87.7,73.5,29.90,WSW,241,3.5,3.5,63,0.00,CLR,,0.00,WeatherDisplay:10.37,2013-08-28 17:05:00,
2013-08-28 12:10:00,88.1,73.4,29.90,WSW,240,9.2,9.2,62,0.00,CLR,,0.00,WeatherDisplay:10.37,2013-08-28 17:10:00,
2013-08-28 12:15:00,88.4,73.7,29.90,WNW,296,8.1,8.1,62,0.00,CLR,,0.00,WeatherDisplay:10.37,2013-08-28 17:15:00,
2013-08-28 12:20:00,88.7,74.0,29.90,South,179,10.4,10.4,62,0.00,CLR,,0.00,WeatherDisplay:10.37,2013-08-28 17:20:00,
2013-08-28 12:25:00,88.5,73.8,29.90,SW,235,9.0,9.0,62,0.00,CLR,,0.00,WeatherDisplay:10.37,2013-08-28 17:25:00,
2013-08-28 12:30:00,88.8,74.1,29.90,West,276,9.0,9.0,62,0.00,CLR,,0.00,WeatherDisplay:10.37,2013-08-28 17:30:00,
2013-08-28 12:35:00,88.4,73.7,29.90,WNW,298,11.5,11.5,62,0.00,CLR,,0.00,WeatherDisplay:10.37,2013-08-28 17:35:00,
2013-08-28 12:40:00,88.5,74.3,29.90,NW,307,11.5,11.5,63,0.00,CLR,,0.00,WeatherDisplay:10.37,2013-08-28 17:40:00,
2013-08-28 12:45:00,88.7,74.5,29.90,West,260,5.0,14.0,63,0.00,CLR,,0.00,WeatherDisplay:10.37,2013-08-28 17:45:00,
2013-08-28 12:50:00,89.0,74.3,29.89,WNW,293,16.1,16.1,62,0.00,CLR,,0.00,WeatherDisplay:10.37,2013-08-28 17:50:00,
2013-08-28 12:55:00,88.8,74.6,29.89,WSW,239,5.8,5.8,63,0.00,CLR,,0.00,WeatherDisplay:10.37,2013-08-28 17:55:00,
2013-08-28 13:00:00,89.3,74.6,29.89,WNW,298,11.5,11.5,62,0.00,CLR,,0.00,WeatherDisplay:10.37,2013-08-28 18:00:00,
2013-08-28 13:05:00,89.5,74.8,29.89,SW,236,11.5,11.5,62,0.00,CLR,,0.00,WeatherDisplay:10.37,2013-08-28 18:05:00,
2013-08-28 13:10:00,89.9,75.1,29.89,West,265,11.5,11.5,62,0.00,CLR,,0.00,WeatherDisplay:10.37,2013-08-28 18:10:00,
2013-08-28 13:15:00,89.9,74.6,29.89,WNW,283,9.2,9.2,61,0.00,CLR,,0.00,WeatherDisplay:10.37,2013-08-28 18:15:00,
2013-08-28 13:20:00,89.8,74.6,29.89,WNW,284,13.8,13.8,61,0.00,CLR,,0.00,WeatherDisplay:10.37,2013-08-28 18:20:00,
2013-08-28 13:25:00,89.2,75.0,29.89,SW,220,10.4,10.4,63,0.00,CLR,,0.00,WeatherDisplay:10.37,2013-08-28 18:25:00,
2013-08-28 13:30:00,89.5,74.8,29.89,SW,234,13.8,13.8,62,0.00,CLR,,0.00,WeatherDisplay:10.37,2013-08-28 18:30:00,
2013-08-28 13:35:00,89.9,75.1,29.89,WNW,285,11.5,11.5,62,0.00,CLR,,0.00,WeatherDisplay:10.37,2013-08-28 18:35:00,
2013-08-28 13:40:00,90.2,75.4,29.89,West,277,10.0,10.0,62,0.00,CLR,,0.00,WeatherDisplay:10.37,2013-08-28 18:40:00,
2013-08-28 13:45:00,90.5,75.7,29.89,WSW,243,11.5,11.5,62,0.00,CLR,,0.00,WeatherDisplay:10.37,2013-08-28 18:45:00,
2013-08-28 13:50:00,91.1,75.8,29.89,WSW,248,11.5,11.5,61,0.00,CLR,,0.00,WeatherDisplay:10.37,2013-08-28 18:50:00,
2013-08-28 13:55:00,91.3,76.0,29.89,WSW,250,8.0,14.0,61,0.00,CLR,,0.00,WeatherDisplay:10.37,2013-08-28 18:55:00,
2013-08-28 14:00:00,91.3,76.0,29.89,SW,221,11.5,11.5,61,0.00,CLR,,0.00,WeatherDisplay:10.37,2013-08-28 19:00:00,
2013-08-28 14:05:00,91.6,76.7,29.89,WNW,284,12.0,12.0,62,0.00,CLR,,0.00,WeatherDisplay:10.37,2013-08-28 19:05:00,
2013-08-28 14:10:00,91.8,76.4,29.89,SW,220,11.5,11.5,61,0.00,CLR,,0.00,WeatherDisplay:10.37,2013-08-28 19:10:00,
2013-08-28 14:15:00,92.0,76.1,29.89,SW,215,12.7,12.7,60,0.00,CLR,,0.00,WeatherDisplay:10.37,2013-08-28 19:15:00,
2013-08-28 14:20:00,91.7,76.3,29.89,WNW,285,12.0,12.0,61,0.00,CLR,,0.00,WeatherDisplay:10.37,2013-08-28 19:20:00,
2013-08-28 14:25:00,90.8,75.5,29.89,West,274,17.3,17.3,61,0.00,CLR,,0.00,WeatherDisplay:10.37,2013-08-28 19:25:00,
2013-08-28 14:30:00,90.6,75.8,29.88,South,184,7.0,7.0,62,0.00,CLR,,0.00,WeatherDisplay:10.37,2013-08-28 19:30:00,
2013-08-28 14:35:00,91.5,76.1,29.88,WNW,282,13.0,13.0,61,0.00,CLR,,0.00,WeatherDisplay:10.37,2013-08-28 19:35:00,
2013-08-28 14:40:00,91.3,76.0,29.88,SSW,195,10.4,10.4,61,0.00,CLR,,0.00,WeatherDisplay:10.37,2013-08-28 19:40:00,
2013-08-28 14:45:00,92.2,76.8,29.88,West,271,4.6,4.6,61,0.00,CLR,,0.00,WeatherDisplay:10.37,2013-08-28 19:45:00,
2013-08-28 14:50:00,92.5,76.6,29.88,WNW,294,12.0,12.0,60,0.00,CLR,,0.00,WeatherDisplay:10.37,2013-08-28 19:50:00,
2013-08-28 14:55:00,92.1,76.7,29.88,West,277,11.5,11.5,61,0.00,CLR,,0.00,WeatherDisplay:10.37,2013-08-28 19:55:00,
2013-08-28 15:00:00,91.6,76.2,29.88,West,275,3.5,3.5,61,0.00,CLR,,0.00,WeatherDisplay:10.37,2013-08-28 20:00:00,
2013-08-28 15:05:00,91.5,76.6,29.88,West,269,10.4,10.4,62,0.00,CLR,,0.00,WeatherDisplay:10.37,2013-08-28 20:05:00,
2013-08-28 15:10:00,91.8,76.9,29.88,WSW,248,9.2,9.2,62,0.00,CLR,,0.00,WeatherDisplay:10.37,2013-08-28 20:10:00,
2013-08-28 15:15:00,92.0,77.1,29.88,WNW,294,12.0,12.0,62,0.00,CLR,,0.00,WeatherDisplay:10.37,2013-08-28 20:15:00,
2013-08-28 15:21:00,91.8,76.9,29.88,SSW,213,11.5,11.5,62,0.00,CLR,,0.00,WeatherDisplay:10.37,2013-08-28 20:21:00,
2013-08-28 15:25:00,92.1,76.7,29.88,WSW,244,12.7,12.7,61,0.00,CLR,,0.00,WeatherDisplay:10.37,2013-08-28 20:25:00,
2013-08-28 15:30:00,92.6,77.2,29.88,SSW,213,9.2,9.2,61,0.00,CLR,,0.00,WeatherDisplay:10.37,2013-08-28 20:30:00,
2013-08-28 15:35:00,93.0,77.6,29.88,WSW,240,3.5,3.5,61,0.00,CLR,,0.00,WeatherDisplay:10.37,2013-08-28 20:35:00,
2013-08-28 15:40:00,92.9,77.0,29.88,WNW,290,9.2,9.2,60,0.00,CLR,,0.00,WeatherDisplay:10.37,2013-08-28 20:40:00,
2013-08-28 15:46:00,92.4,77.0,29.88,West,276,11.5,11.5,61,0.00,CLR,,0.00,WeatherDisplay:10.37,2013-08-28 20:46:00,
2013-08-28 15:51:00,91.7,76.8,29.88,SW,233,11.5,11.5,62,0.00,CLR,,0.00,WeatherDisplay:10.37,2013-08-28 20:51:00,
2013-08-28 15:56:00,92.0,77.1,29.88,SW,236,11.5,11.5,62,0.00,CLR,,0.00,WeatherDisplay:10.37,2013-08-28 20:56:00,
2013-08-28 16:01:00,92.4,77.0,29.88,West,274,12.7,12.7,61,0.00,CLR,,0.00,WeatherDisplay:10.37,2013-08-28 21:01:00,
2013-08-28 16:06:00,92.3,77.4,29.87,SW,225,15.0,15.0,62,0.00,CLR,,0.00,WeatherDisplay:10.37,2013-08-28 21:06:00,
2013-08-28 16:11:00,92.4,77.5,29.88,SW,220,12.0,12.0,62,0.00,CLR,,0.00,WeatherDisplay:10.37,2013-08-28 21:11:00,
2013-08-28 16:16:00,92.4,77.5,29.88,WNW,283,14.0,14.0,62,0.00,CLR,,0.00,WeatherDisplay:10.37,2013-08-28 21:16:00,
2013-08-28 16:21:00,91.6,76.7,29.88,SW,220,15.0,15.0,62,0.00,CLR,,0.00,WeatherDisplay:10.37,2013-08-28 21:21:00,
2013-08-28 16:26:00,91.8,77.4,29.87,West,260,10.4,10.4,63,0.00,CLR,,0.00,WeatherDisplay:10.37,2013-08-28 21:26:00,
2013-08-28 16:31:00,92.2,77.8,29.87,NW,306,11.0,11.0,63,0.00,CLR,,0.00,WeatherDisplay:10.37,2013-08-28 21:31:00,
2013-08-28 16:36:00,92.2,77.3,29.87,West,275,6.9,7.3,62,0.00,CLR,,0.00,WeatherDisplay:10.37,2013-08-28 21:36:00,
2013-08-28 16:41:00,92.3,77.9,29.88,WNW,300,10.0,10.0,63,0.00,CLR,,0.00,WeatherDisplay:10.37,2013-08-28 21:41:00,
2013-08-28 16:46:00,91.9,77.5,29.88,WNW,294,13.8,13.8,63,0.00,CLR,,0.00,WeatherDisplay:10.37,2013-08-28 21:46:00,
2013-08-28 16:51:00,91.6,77.7,29.87,SW,234,4.6,4.6,64,0.00,CLR,,0.00,WeatherDisplay:10.37,2013-08-28 21:51:00,
2013-08-28 16:56:00,91.4,77.5,29.87,West,281,13.8,13.8,64,0.00,CLR,,0.00,WeatherDisplay:10.37,2013-08-28 21:56:00,
2013-08-28 17:01:00,91.0,77.6,29.87,WNW,286,13.8,13.8,65,0.00,CLR,,0.00,WeatherDisplay:10.37,2013-08-28 22:01:00,
2013-08-28 17:06:00,90.7,77.8,29.87,West,281,12.7,12.7,66,0.00,CLR,,0.00,WeatherDisplay:10.37,2013-08-28 22:06:00,
2013-08-28 17:11:00,90.4,77.5,29.87,WNW,292,12.7,12.7,66,0.00,CLR,,0.00,WeatherDisplay:10.37,2013-08-28 22:11:00,
2013-08-28 17:16:00,90.2,77.8,29.88,WNW,300,7.0,7.0,67,0.00,CLR,,0.00,WeatherDisplay:10.37,2013-08-28 22:16:00,
2013-08-28 17:21:00,90.2,77.3,29.88,NW,325,12.0,12.0,66,0.00,CLR,,0.00,WeatherDisplay:10.37,2013-08-28 22:21:00,
2013-08-28 17:26:00,90.0,77.6,29.88,NNW,348,11.5,11.5,67,0.00,CLR,,0.00,WeatherDisplay:10.37,2013-08-28 22:26:00,
2013-08-28 17:31:00,89.8,77.4,29.88,North,351,11.5,11.5,67,0.00,CLR,,0.00,WeatherDisplay:10.37,2013-08-28 22:31:00,
2013-08-28 17:36:00,89.9,77.9,29.88,NNW,332,11.5,12.0,68,0.00,CLR,,0.00,WeatherDisplay:10.37,2013-08-28 22:36:00,
2013-08-28 17:41:00,89.5,77.5,29.88,NNW,331,13.8,13.8,68,0.00,CLR,,0.00,WeatherDisplay:10.37,2013-08-28 22:41:00,
2013-08-28 17:46:00,89.4,77.4,29.88,North,355,13.8,13.8,68,0.00,CLR,,0.00,WeatherDisplay:10.37,2013-08-28 22:46:00,
2013-08-28 17:51:00,89.6,77.6,29.88,North,349,13.8,13.8,68,0.00,CLR,,0.00,WeatherDisplay:10.37,2013-08-28 22:51:00,
2013-08-28 17:56:00,89.8,77.8,29.89,NNW,331,11.5,11.5,68,0.00,CLR,,0.00,WeatherDisplay:10.37,2013-08-28 22:56:00,
2013-08-28 18:01:00,89.6,77.6,29.89,NW,319,16.1,16.1,68,0.00,CLR,,0.00,WeatherDisplay:10.37,2013-08-28 23:01:00,
2013-08-28 18:06:00,89.6,77.6,29.88,North,9,10.4,10.4,68,0.00,CLR,,0.00,WeatherDisplay:10.37,2013-08-28 23:06:00,
2013-08-28 18:11:00,89.6,77.6,29.88,NNE,26,16.0,16.0,68,0.00,CLR,,0.00,WeatherDisplay:10.37,2013-08-28 23:11:00,
2013-08-28 18:16:00,88.7,77.7,29.89,North,9,17.3,17.3,70,0.00,CLR,,0.00,WeatherDisplay:10.37,2013-08-28 23:16:00,
2013-08-28 18:21:00,88.2,77.6,29.89,North,360,15.0,15.0,71,0.00,CLR,,0.00,WeatherDisplay:10.37,2013-08-28 23:21:00,
2013-08-28 18:26:00,87.4,77.3,29.89,North,9,19.6,19.6,72,0.00,CLR,,0.00,WeatherDisplay:10.37,2013-08-28 23:26:00,
2013-08-28 18:31:00,87.1,77.4,29.89,NE,51,14.0,14.0,73,0.00,CLR,,0.00,WeatherDisplay:10.37,2013-08-28 23:31:00,
2013-08-28 18:36:00,86.7,77.0,29.89,NNE,14,14.0,14.0,73,0.00,CLR,,0.00,WeatherDisplay:10.37,2013-08-28 23:36:00,
2013-08-28 18:41:00,86.3,77.0,29.90,NNE,23,12.7,12.7,74,0.00,CLR,,0.00,WeatherDisplay:10.37,2013-08-28 23:41:00,
2013-08-28 18:46:00,86.0,76.7,29.90,NNE,29,12.7,12.7,74,0.00,CLR,,0.00,WeatherDisplay:10.37,2013-08-28 23:46:00,
2013-08-28 18:51:00,85.7,76.5,29.90,NNE,12,13.8,13.8,74,0.00,CLR,,0.00,WeatherDisplay:10.37,2013-08-28 23:51:00,
2013-08-28 18:56:00,85.2,76.4,29.90,NNE,24,13.8,13.8,75,0.00,CLR,,0.00,WeatherDisplay:10.37,2013-08-28 23:56:00,
2013-08-28 19:01:00,84.9,76.1,29.90,North,9,14.0,14.0,75,0.00,CLR,,0.00,WeatherDisplay:10.37,2013-08-29 00:01:00,
2013-08-28 19:06:00,84.4,76.0,29.90,NNE,28,16.1,16.1,76,0.00,CLR,,0.00,WeatherDisplay:10.37,2013-08-29 00:06:00,
2013-08-28 19:11:00,84.0,75.6,29.90,NNE,28,17.3,17.3,76,0.00,CLR,,0.00,WeatherDisplay:10.37,2013-08-29 00:11:00,
2013-08-28 19:16:00,83.6,75.6,29.91,NNE,21,18.4,18.4,77,0.00,CLR,,0.00,WeatherDisplay:10.37,2013-08-29 00:16:00,
2013-08-28 19:21:00,83.1,75.1,29.91,NNE,22,16.0,16.0,77,0.00,CLR,,0.00,WeatherDisplay:10.37,2013-08-29 00:21:00,
2013-08-28 19:26:00,82.7,75.1,29.91,NNE,18,12.7,12.7,78,0.00,CLR,,0.00,WeatherDisplay:10.37,2013-08-29 00:26:00,
2013-08-28 19:31:00,82.1,74.6,29.91,NNE,22,13.8,13.8,78,0.00,CLR,,0.00,WeatherDisplay:10.37,2013-08-29 00:31:00,
2013-08-28 19:36:00,81.8,74.6,29.91,NE,53,12.7,12.7,79,0.00,CLR,,0.00,WeatherDisplay:10.37,2013-08-29 00:36:00,
2013-08-28 19:41:00,81.4,74.3,29.91,North,11,11.5,11.5,79,0.00,CLR,,0.00,WeatherDisplay:10.37,2013-08-29 00:41:00,
2013-08-28 19:46:00,81.1,74.0,29.91,NNE,20,12.7,12.7,79,0.00,CLR,,0.00,WeatherDisplay:10.37,2013-08-29 00:46:00,
2013-08-28 19:51:00,80.8,73.7,29.91,NE,44,11.5,11.5,79,0.00,CLR,,0.00,WeatherDisplay:10.37,2013-08-29 00:51:00,
2013-08-28 19:56:00,80.6,73.9,29.91,NNE,15,9.0,9.0,80,0.00,CLR,,0.00,WeatherDisplay:10.37,2013-08-29 00:56:00,
2013-08-28 20:01:00,80.3,73.6,29.91,NNE,21,6.9,6.9,80,0.00,CLR,,0.00,WeatherDisplay:10.37,2013-08-29 01:01:00,
2013-08-28 20:06:00,80.2,73.5,29.92,North,360,10.4,10.4,80,0.00,CLR,,0.00,WeatherDisplay:10.37,2013-08-29 01:06:00,
2013-08-28 20:11:00,80.0,73.3,29.93,NNE,16,9.2,9.2,80,0.00,CLR,,0.00,WeatherDisplay:10.37,2013-08-29 01:11:00,
2013-08-28 20:16:00,79.8,73.1,29.93,NNE,24,10.4,10.4,80,0.00,CLR,,0.00,WeatherDisplay:10.37,2013-08-29 01:16:00,
2013-08-28 20:21:00,79.6,72.9,29.93,NE,39,11.5,11.5,80,0.00,CLR,,0.00,WeatherDisplay:10.37,2013-08-29 01:21:00,
2013-08-28 20:26:00,79.3,73.0,29.93,NNE,13,12.0,12.0,81,0.00,CLR,,0.00,WeatherDisplay:10.37,2013-08-29 01:26:00,
2013-08-28 20:32:00,79.0,72.7,29.93,NNE,19,11.5,11.5,81,0.00,CLR,,0.00,WeatherDisplay:10.37,2013-08-29 01:32:00,
2013-08-28 20:37:00,78.8,72.8,29.93,North,5,11.5,11.5,82,0.00,CLR,,0.00,WeatherDisplay:10.37,2013-08-29 01:37:00,
2013-08-28 20:42:00,78.6,72.3,29.93,NNE,22,15.0,15.0,81,0.00,CLR,,0.00,WeatherDisplay:10.37,2013-08-29 01:42:00,
2013-08-28 20:47:00,78.4,72.4,29.93,NNE,19,10.4,10.4,82,0.00,CLR,,0.00,WeatherDisplay:10.37,2013-08-29 01:47:00,
2013-08-28 20:52:00,78.1,72.2,29.94,NNE,17,10.4,10.4,82,0.00,CLR,,0.00,WeatherDisplay:10.37,2013-08-29 01:52:00,
2013-08-28 20:57:00,77.7,71.8,29.94,NNE,17,11.5,11.5,82,0.00,CLR,,0.00,WeatherDisplay:10.37,2013-08-29 01:57:00,
2013-08-28 21:02:00,77.4,71.8,29.94,NNE,19,6.9,6.9,83,0.00,CLR,,0.00,WeatherDisplay:10.37,2013-08-29 02:02:00,
2013-08-28 21:07:00,77.0,71.4,29.95,NNE,30,9.2,9.2,83,0.00,CLR,,0.00,WeatherDisplay:10.37,2013-08-29 02:07:00,
2013-08-28 21:12:00,76.8,71.2,29.95,North,9,7.0,7.0,83,0.00,CLR,,0.00,WeatherDisplay:10.37,2013-08-29 02:12:00,
2013-08-28 21:17:00,76.5,71.3,29.94,North,5,10.4,10.4,84,0.00,CLR,,0.00,WeatherDisplay:10.37,2013-08-29 02:17:00,
2013-08-28 21:22:00,76.2,71.0,29.95,NNE,19,9.2,9.2,84,0.00,CLR,,0.00,WeatherDisplay:10.37,2013-08-29 02:22:00,
2013-08-28 21:27:00,76.1,70.9,29.95,NNE,17,11.5,11.5,84,0.00,CLR,,0.00,WeatherDisplay:10.37,2013-08-29 02:27:00,
2013-08-28 21:32:00,75.8,71.0,29.95,NNE,22,10.4,10.4,85,0.00,CLR,,0.00,WeatherDisplay:10.37,2013-08-29 02:32:00,
2013-08-28 21:37:00,75.6,70.8,29.95,NE,35,5.8,5.8,85,0.00,CLR,,0.00,WeatherDisplay:10.37,2013-08-29 02:37:00,
2013-08-28 21:42:00,75.5,71.0,29.96,NNE,32,5.0,5.0,86,0.00,CLR,,0.00,WeatherDisplay:10.37,2013-08-29 02:42:00,
2013-08-28 21:47:00,75.4,70.9,29.96,NNE,32,4.6,4.6,86,0.00,CLR,,0.00,WeatherDisplay:10.37,2013-08-29 02:47:00,
2013-08-28 21:52:00,75.3,70.8,29.96,NNE,15,6.9,6.9,86,0.00,CLR,,0.00,WeatherDisplay:10.37,2013-08-29 02:52:00,
2013-08-28 21:57:00,75.2,70.7,29.96,NNE,30,6.0,6.0,86,0.00,CLR,,0.00,WeatherDisplay:10.37,2013-08-29 02:57:00,
2013-08-28 22:02:00,75.0,70.5,29.96,NE,35,9.2,9.2,86,0.00,CLR,,0.00,WeatherDisplay:10.37,2013-08-29 03:02:00,
2013-08-28 22:07:00,74.7,70.6,29.96,NE,38,8.1,8.1,87,0.00,CLR,,0.00,WeatherDisplay:10.37,2013-08-29 03:07:00,
2013-08-28 22:12:00,74.7,70.6,29.96,NNE,16,7.0,7.0,87,0.00,CLR,,0.00,WeatherDisplay:10.37,2013-08-29 03:12:00,
2013-08-28 22:17:00,74.6,70.5,29.96,NNE,14,9.2,9.2,87,0.00,CLR,,0.00,WeatherDisplay:10.37,2013-08-29 03:17:00,
2013-08-28 22:22:00,74.4,70.3,29.96,NNE,12,6.9,6.9,87,0.00,CLR,,0.00,WeatherDisplay:10.37,2013-08-29 03:22:00,
2013-08-28 22:27:00,74.2,70.4,29.96,North,11,5.8,5.8,88,0.00,CLR,,0.00,WeatherDisplay:10.37,2013-08-29 03:27:00,
2013-08-28 22:32:00,74.1,70.3,29.96,North,11,3.5,3.5,88,0.00,CLR,,0.00,WeatherDisplay:10.37,2013-08-29 03:32:00,
2013-08-28 22:37:00,74.1,70.3,29.96,North,11,3.5,3.5,88,0.00,CLR,,0.00,WeatherDisplay:10.37,2013-08-29 03:37:00,
2013-08-28 22:42:00,74.0,70.2,29.96,NE,34,5.8,5.8,88,0.00,CLR,,0.00,WeatherDisplay:10.37,2013-08-29 03:42:00,
2013-08-28 22:47:00,74.0,70.2,29.96,NNE,32,4.0,4.0,88,0.00,CLR,,0.00,WeatherDisplay:10.37,2013-08-29 03:47:00,
2013-08-28 22:52:00,74.0,70.2,29.96,NNE,32,5.8,5.8,88,0.00,CLR,,0.00,WeatherDisplay:10.37,2013-08-29 03:52:00,
2013-08-28 22:57:00,73.8,70.0,29.96,NNE,32,6.9,6.9,88,0.00,CLR,,0.00,WeatherDisplay:10.37,2013-08-29 03:57:00,
2013-08-28 23:01:00,73.8,70.0,29.96,NE,42,4.6,4.6,88,0.00,CLR,,0.00,WeatherDisplay:10.37,2013-08-29 04:01:00,
2013-08-28 23:06:00,73.8,70.0,29.96,NE,42,4.0,4.0,88,0.00,CLR,,0.00,WeatherDisplay:10.37,2013-08-29 04:06:00,
2013-08-28 23:11:00,73.7,69.9,29.96,NE,40,5.0,5.0,88,0.00,CLR,,0.00,WeatherDisplay:10.37,2013-08-29 04:11:00,
2013-08-28 23:16:00,73.6,69.8,29.96,NE,36,4.6,4.6,88,0.00,CLR,,0.00,WeatherDisplay:10.37,2013-08-29 04:16:00,
2013-08-28 23:21:00,73.5,70.1,29.96,NE,36,3.5,3.5,89,0.00,CLR,,0.00,WeatherDisplay:10.37,2013-08-29 04:21:00,
2013-08-28 23:26:00,73.4,70.0,29.96,NE,43,6.9,6.9,89,0.00,CLR,,0.00,WeatherDisplay:10.37,2013-08-29 04:26:00,
2013-08-28 23:31:00,73.3,69.9,29.96,NE,36,10.0,10.0,89,0.00,CLR,,0.00,WeatherDisplay:10.37,2013-08-29 04:31:00,
2013-08-28 23:36:00,73.1,69.7,29.96,NNE,25,9.2,9.2,89,0.00,CLR,,0.00,WeatherDisplay:10.37,2013-08-29 04:36:00,
2013-08-28 23:41:00,73.1,69.7,29.96,NNE,24,6.9,6.9,89,0.00,CLR,,0.00,WeatherDisplay:10.37,2013-08-29 04:41:00,
2013-08-28 23:46:00,73.0,69.6,29.96,NNE,24,5.0,5.0,89,0.00,CLR,,0.00,WeatherDisplay:10.37,2013-08-29 04:46:00,
2013-08-28 23:51:00,72.9,69.5,29.96,NNE,22,5.8,5.8,89,0.00,CLR,,0.00,WeatherDisplay:10.37,2013-08-29 04:51:00,
2013-08-28 23:56:00,72.8,69.4,29.96,NNE,24,4.6,4.6,89,0.00,CLR,,0.00,WeatherDisplay:10.37,2013-08-29 04:56:00,